STARLINK-4280 (53178 NORAD) Tracking and Keplerian Element Data

This shows tracking and keplerian element data for the satellite.

Feedback or suggestion? Click here.




ElementValue
Catalog53178
NameSTARLINK-4280
Epoch Orbit1184
Epoch Day270.25001157
Epoch Year2022
RAAN58.013
Inclination53.2164
Eccentricity0.0001707
Argument of Perigee40.2552
Mean Anonmoly245.6249
Mean Motion15.13533831
Decay Rate-0.01078825
L11 53178U 22083AY 22270.25001157 -.01078825 00000+0 -64283-1 0 9999
L22 53178 53.2164 58.0130 0001707 40.2552 245.6249 15.13533831 11846

Live tracking and technical data element details for STARLINK-4280 (NORAD 53178). STARLINK-4280 can be tracked NOW for your location showing map with azimuth and elevation plus other details from your city location.

Track the satellite on the map from your city or location and see movement details for azimuth, elevation, latitude, longitude, range, height, and movement on the map or in text.







IsCatalogInMostPopularTable: catalog: 53178, numindb: 8
Update: records affected: 1



GetName: 53178 STARLINK-4280

Hit Count: updated at: Wed, 28 Sep 2022 21:47:54 GMT